CZ-3C DEB, 39338

Orbit data source: Space-Track

CZ-3C DEB, 39338 is space debris in HEO originally from a launch on Sun, 31 Oct 2010 UTC launched from the Xichang Space Center, China (XSC). Debris objects in space refer to the collection of defunct objects orbiting the Earth. Examples of debris include non-operational satellites, rocket bodies, and fragments generated from explosions, collisions, or faulty payload assembly.

Loading next visibility...
Identifier
39338, 2010-057C
Orbit
HEO
Country
Flag of CNCN / PRC
Related business
Manufacturer
CALT
Mission
Spacecraft
Bus & Motor
Unknown
Mass
Unknown
Launch date (UTC)
2010-10-31 (15 years ago)
Launch vehicle
Unknown
Launch site
Xichang Space Center, China (XSC)
Object type
Payload
Rocket body
Debris
Shape & HBR
Unknown shape, 0.4 m
Radar Cross Section
Medium (>0.1 m² and <1 m²)

Expand to show TLE details & history
Last TLE update: 1 day ago

TLE from 1 day ago
0 CZ-3C DEB
1 39338U 10057C   25292.83019711  .00000374  00000-0  26912-2 0  9995
2 39338  19.8530  93.6241 7198299 182.9405 167.6789  2.25828294 98961
Epoch: 2025-10-19T19:55Z
TLE epoch observation values (Epoch: 2025-10-19T19:55:29.030Z)
Latitude
-0.00031°
Longitude
126.20322°
Altitude
35,666.248 km
Speed
1.649 km/s
True Right ascension
06h 14m 27s
True Declination
0° 00' 01"
Sunlit
Object was in daylight at epoch
Visualization orbit readout
Latitude
Unknown
Longitude
Unknown
Altitude
Unknown
Speed
Unknown
Apparent Right ascension
Unknown
Apparent Declination
Unknown
Sunlit
N/A
Visualization observer readout
Local Sidereal Time
21:39:50
Azimuth
Unknown
Elevation
Unknown
Doppler factor
Unknown
Orbital elements
Apogee altitude
35,834.962 km
Perigee altitude
498.618 km
Semi-major axis
24,544.927 km
Eccentricity
0.71983
Inclination
19.853°
RAAN
93.6241°
Arg. of periapsis
182.9405°
True anomaly
177.10211°
Mean anomaly
167.6789°
Eccentric anomaly
172.82803°
Mean motion
0.56442 °/min
Orbital period
637.83 mins
BSTAR
0.0026912
Loading maneuver chart data...
Computing Atmospheric mass density...
Loading historical data...
Loading historical data...
Loading historical data...
Loading historical data...
Loading historical data...
Loading historical data...
Loading historical data...

Documentation

Showing up to 5 results
|